Waarnemingen

Advertentie
Mijn weer
Lannion, Frankrijk (7118): temperatuur & dauwpunt: 11.10.2017 03:00:00 - 17.10.2017 03:00:00 (CEST)Lannion, Frankrijk (7118): windsnelheid & windstoten: 11.10.2017 03:00:00 - 17.10.2017 03:00:00 (CEST)Lannion, Frankrijk (7118): windrichting: 11.10.2017 03:00:00 - 17.10.2017 03:00:00 (CEST)Lannion, Frankrijk (7118): luchtdruk: 11.10.2017 03:00:00 - 17.10.2017 03:00:00 (CEST)Lannion, Frankrijk (7118): zicht: 11.10.2017 03:00:00 - 17.10.2017 03:00:00 (CEST)Lannion, Frankrijk (7118): neerslag: 11.10.2017 03:00:00 - 17.10.2017 03:00:00 (CEST)
Datum & Tijd tt [°C] td [°C] ff [km/u] ff [kn] fx [km/u] fx [kn] dd ppp [hPa] vv [km] rr [mm]
17.10.2017 03:00:00 9,1 7,7 4 2 14 8 ZO 1022,9 10 0,0
17.10.2017 02:00:00 9,2 7,6 9 5 16 9 ZZO 1023,2 10 0,0
17.10.2017 01:00:00 10,4 8,2 9 5 16 9 Z 1022,9 10 0,0
17.10.2017 00:00:00 10,2 8,1 8 4 16 9 ZZO 1022,9 10 0,0
16.10.2017 23:00:00 10,8 8,0 9 5 21 12 ZZO 1022,7 10 0,0
16.10.2017 22:00:00 11,9 8,6 11 6 19 10 Z 1022,2 10 0,0
16.10.2017 21:00:00 12,0 7,9 11 6 21 11 Z 1021,9 10 0,0
16.10.2017 20:00:00 13,4 8,0 13 7 29 16 ZW 1021,3 10 0,0
16.10.2017 19:00:00 15,1 8,6 18 10 42 23 ZW 1020,3 10 0,0
16.10.2017 18:00:00 16,5 8,5 29 16 56 31 ZW 1019,5 10 0,0
16.10.2017 17:00:00 17,8 9,2 28 15 57 31 ZW 1018,8 10 0,0
16.10.2017 16:00:00 18,3 9,9 35 19 60 33 ZW 1018,5 10 0,0
16.10.2017 15:00:00 18,6 10,2 39 21 55 30 ZW 1018,0 10 0,0
16.10.2017 14:00:00 19,0 11,6 31 17 58 32 ZW 1017,5 10 0,0
16.10.2017 13:00:00 17,2 11,7 24 13 52 28 ZZW 1016,9 10 0,0
16.10.2017 12:00:00 17,6 11,8 28 15 52 28 ZW 1015,9 10 0,0
16.10.2017 11:00:00 18,7 14,4 28 15 56 30 ZZW 1014,7 10 0,0
16.10.2017 10:00:00 19,2 15,3 26 14 52 28 Z 1014,0 10 0,0
16.10.2017 09:00:00 19,6 15,3 29 16 59 32 Z 1013,1 10 0,0
16.10.2017 08:00:00 20,0 14,8 35 19 57 31 Z 1012,7 10 0,0
16.10.2017 07:00:00 19,7 14,3 29 16 51 28 ZZO 1011,9 10 0,0
16.10.2017 06:00:00 19,9 14,7 29 16 50 27 ZZO 1012,2 10 0,0
16.10.2017 05:00:00 20,1 15,3 28 15 50 27 ZZO 1013,0 10 0,0
16.10.2017 04:00:00 20,6 15,2 26 14 50 27 ZZO 1014,5 10 0,0
16.10.2017 03:00:00 20,0 14,6 26 14 50 27 ZZO 1015,0 10 0,0
16.10.2017 02:00:00 19,8 13,5 24 13 47 25 ZZO 1015,6 10 0,0
16.10.2017 01:00:00 19,6 13,1 24 13 38 21 ZZO 1015,8 33 0,0
16.10.2017 00:00:00 19,3 14,1 18 10 31 17 ZZO 1016,0 10 0,0
15.10.2017 23:00:00 18,4 14,7 13 7 31 17 ZZO 1016,4 10 0,0
15.10.2017 22:00:00 18,9 14,6 16 9 37 20 ZZO 1016,0 10 0,0
15.10.2017 21:00:00 19,4 14,9 18 10 37 20 ZZO 1016,0 10 0,0
15.10.2017 20:00:00 20,4 14,7 21 11 38 20 ZZO 1016,1 10 0,0
15.10.2017 19:00:00 21,4 15,5 16 9 32 17 Z 1015,9 10 0,0
15.10.2017 18:00:00 22,5 15,8 13 7 25 14 Z 1015,8 10 0,0
15.10.2017 17:00:00 22,9 15,5 11 6 37 20 ZZO 1015,9 10 0,0
15.10.2017 16:00:00 23,9 14,9 16 9 41 22 Z 1016,1 10 0,0
15.10.2017 15:00:00 23,6 13,5 15 8 29 15 ZZO 1016,8 10 0,0
15.10.2017 14:00:00 21,4 13,1 16 9 27 14 ZO 1016,9 10 0,0
15.10.2017 13:00:00 20,0 12,7 16 9 30 16 ZZO 1018,0 10 0,0
15.10.2017 12:00:00 18,2 12,9 16 9 28 15 ZZO 1018,5 10 0,0
15.10.2017 11:00:00 16,5 13,6 16 9 25 13 ZZO 1018,7 10 0,0
15.10.2017 10:00:00 14,7 13,2 5 3 8 4 ZO 1019,0 8 0,0
15.10.2017 09:00:00 13,3 11,7 5 3 16 9 ZO 1018,9 7 0,0
15.10.2017 08:00:00 14,3 12,2 11 6 24 13 Z 1018,9 10 0,0
15.10.2017 07:00:00 15,2 12,7 13 7 27 14 Z 1019,1 10 0,0
15.10.2017 06:00:00 15,7 13,2 11 6 24 13 Z 1019,2 10 0,0
15.10.2017 05:00:00 16,2 13,9 8 4 28 15 Z 1019,0 10 0,0
15.10.2017 04:00:00 16,4 14,6 16 9 37 20 Z 1019,2 10 0,0
15.10.2017 03:00:00 16,3 14,8 15 8 23 13 Z 1019,6 9 0,0
15.10.2017 02:00:00 15,4 14,3 13 7 25 13 Z 1019,6 8 0,0
15.10.2017 01:00:00 14,5 13,5 11 6 19 10 ZZO 1019,7 10 0,0
15.10.2017 00:00:00 13,1 12,6 8 4 18 10 OZO 1020,1 6 0,0
14.10.2017 23:00:00 13,9 13,6 15 8 24 13 OZO 1020,2 4,2 0,0
14.10.2017 22:00:00 14,3 14,0 16 9 24 13 OZO 1020,8 0,6 0,0
14.10.2017 21:00:00 14,4 13,8 9 5 18 10 O 1021,5 1,0 0,0
14.10.2017 20:00:00 15,1 14,1 8 4 14 7 O 1022,0 5 0,0
14.10.2017 19:00:00 16,4 14,2 8 4 19 10 O 1022,0 7 0,0
14.10.2017 18:00:00 18,8 15,5 11 6 18 10 O 1022,1 10 0,0
14.10.2017 17:00:00 20,2 15,6 8 4 16 9 O 1022,6 10 0,0
14.10.2017 16:00:00 20,7 15,3 11 6 25 13 O 1023,0 10 0,0
14.10.2017 15:00:00 19,2 14,5 16 9 24 13 ZO 1023,6 10 0,0
14.10.2017 14:00:00 18,6 14,1 9 5 18 10 ONO 1024,7 10 0,0
14.10.2017 13:00:00 17,8 13,5 9 5 19 10 O 1025,4 10 0,0
14.10.2017 12:00:00 16,4 13,7 9 5 17 9 ONO 1026,0 10 0,0
14.10.2017 11:00:00 13,8 13,2 4 2 11 6 OZO 1026,1 10 0,2
14.10.2017 10:00:00 11,8 11,5 5 3 8 4 ZO 1026,1 9 0,0
14.10.2017 09:00:00 10,5 10,2 4 2 9 5 ZZO 1026,1 0,7 0,0
14.10.2017 08:00:00 11,1 10,8 4 2 9 5 - 1026,0 0,8 0,0
14.10.2017 07:00:00 11,2 10,9 5 3 10 6 ZO 1026,0 0,5 0,0
14.10.2017 06:00:00 11,5 11,2 8 4 13 7 ZZO 1026,1 0,4 0,0
14.10.2017 05:00:00 11,4 11,1 8 4 10 5 ZO 1026,2 0,6 0,0
14.10.2017 04:00:00 11,9 11,6 5 3 10 5 Z 1026,4 4,4 0,0
14.10.2017 03:00:00 11,5 11,0 5 3 12 6 ZZO 1026,7 0,4 0,0
14.10.2017 02:00:00 11,5 10,9 9 5 12 6 ZZO 1026,4 7 0,0
14.10.2017 01:00:00 12,1 11,3 8 4 10 6 ZZW 1026,5 10 0,0
14.10.2017 00:00:00 12,8 11,9 8 4 16 9 ZZW 1026,3 9 0,0
13.10.2017 23:00:00 13,6 12,5 13 7 16 9 WZW 1026,3 10 0,0
13.10.2017 22:00:00 13,6 12,2 9 5 15 8 ZW 1026,2 10 0,0
13.10.2017 21:00:00 14,8 12,3 5 3 15 8 ZZW 1026,1 10 0,0
13.10.2017 20:00:00 15,5 12,6 9 5 17 9 ZZW 1025,8 10 0,0
13.10.2017 19:00:00 17,3 13,0 8 4 19 11 ZZW 1025,4 10 0,0
13.10.2017 18:00:00 19,2 13,1 15 8 24 13 Z 1024,9 10 0,0
13.10.2017 17:00:00 19,9 13,6 13 7 24 13 Z 1024,8 10 0,0
13.10.2017 16:00:00 20,2 14,3 15 8 26 14 Z 1024,9 10 0,0
13.10.2017 15:00:00 19,4 13,8 16 9 30 16 Z 1025,1 10 0,0
13.10.2017 14:00:00 18,0 13,9 16 9 36 19 Z 1025,5 10 0,0
13.10.2017 13:00:00 18,6 14,7 18 10 30 16 Z 1025,7 10 0,0
13.10.2017 12:00:00 17,3 14,4 16 9 25 13 Z 1025,8 10 0,0
13.10.2017 11:00:00 15,8 14,8 9 5 16 8 Z 1025,5 10 0,0
13.10.2017 10:00:00 15,4 14,3 9 5 18 10 Z 1025,1 10 0,4
13.10.2017 09:00:00 15,2 13,9 11 6 16 9 Z 1024,6 17 0,0
13.10.2017 08:00:00 14,9 13,6 9 5 17 9 Z 1024,2 10 0,0
13.10.2017 07:00:00 14,9 13,6 8 4 17 9 Z 1024,2 10 0,0
13.10.2017 06:00:00 15,5 14,5 9 5 16 9 Z 1024,0 10 0,0
13.10.2017 05:00:00 15,9 14,9 9 5 18 10 Z 1024,1 10 0,0
13.10.2017 04:00:00 15,8 14,7 11 6 21 11 Z 1024,2 10 0,0
13.10.2017 03:00:00 15,8 14,7 13 7 21 11 ZZW 1024,3 10 0,0
13.10.2017 02:00:00 15,3 14,3 8 4 19 10 Z 1024,3 10 0,0
13.10.2017 01:00:00 15,4 14,3 11 6 24 13 ZZW 1024,4 10 0,0
13.10.2017 00:00:00 15,4 13,9 16 9 28 15 ZW 1024,5 10 0,0
12.10.2017 23:00:00 14,3 13,2 9 5 20 11 Z 1024,4 10 0,0
12.10.2017 22:00:00 14,9 13,8 9 5 20 11 Z 1024,0 10 0,0
12.10.2017 21:00:00 16,0 14,7 11 6 21 11 ZZW 1023,9 10 0,0
12.10.2017 20:00:00 16,3 14,8 11 6 20 11 ZZW 1023,7 10 0,0
12.10.2017 19:00:00 16,4 14,8 13 7 31 17 ZZW 1023,3 10 0,0
12.10.2017 18:00:00 17,2 15,4 18 10 32 18 ZZW 1023,1 10 0,2
12.10.2017 17:00:00 17,3 16,7 15 8 29 15 ZW 1023,1 3,7 4,3
12.10.2017 16:00:00 17,2 16,4 16 9 26 14 ZW 1023,2 5 1,6
12.10.2017 15:00:00 16,9 16,1 5 3 20 11 - 1023,2 2,1 0,2
12.10.2017 14:00:00 16,9 15,2 11 6 19 10 Z 1023,7 6 0,0
12.10.2017 13:00:00 17,4 14,1 9 5 24 13 ZZW 1023,7 10 0,0
12.10.2017 12:00:00 17,2 14,3 9 5 19 10 ZZW 1023,6 10 0,0
12.10.2017 11:00:00 14,7 13,7 5 3 9 5 ZZO 1023,3 10 0,2
12.10.2017 10:00:00 13,0 12,5 4 2 6 4 - 1023,2 10 0,0
12.10.2017 09:00:00 11,5 10,7 5 3 7 4 Z 1022,6 9 0,2
12.10.2017 08:00:00 12,8 11,9 5 3 8 5 ZZW 1021,8 9 0,0
12.10.2017 07:00:00 13,4 12,3 4 2 6 4 - 1021,5 10 0,2
12.10.2017 06:00:00 13,5 12,2 5 3 10 5 W 1021,2 10 0,0
12.10.2017 05:00:00 13,7 12,3 8 4 14 7 W 1020,8 10 0,0
12.10.2017 04:00:00 13,8 12,7 8 4 13 7 W 1020,6 10 0,2
12.10.2017 03:00:00 14,0 13,0 8 4 23 12 W 1019,9 10 0,0
12.10.2017 02:00:00 14,5 13,7 15 8 35 19 W 1019,8 9 0,0
12.10.2017 01:00:00 15,6 14,6 15 8 25 13 ZW 1018,9 10 0,2
12.10.2017 00:00:00 15,5 14,9 16 9 34 19 WZW 1019,2 10 0,0
11.10.2017 23:00:00 15,7 14,4 18 10 36 19 ZW 1018,5 10 0,0
11.10.2017 22:00:00 16,0 14,0 24 13 41 22 ZW 1017,7 10 0,0
11.10.2017 21:00:00 15,9 14,1 22 12 40 22 ZW 1016,8 10 0,0
11.10.2017 20:00:00 15,6 14,0 18 10 39 21 ZZW 1016,2 10 0,0
11.10.2017 19:00:00 16,0 13,1 21 11 45 25 ZW 1015,8 10 0,0
11.10.2017 18:00:00 16,6 13,7 28 15 41 22 ZW 1015,4 10 0,0
11.10.2017 17:00:00 17,1 13,2 24 13 48 26 ZZW 1015,1 10 0,0
11.10.2017 16:00:00 18,1 12,8 26 14 47 25 ZZW 1015,1 10 0,0
11.10.2017 15:00:00 16,7 11,4 26 14 46 25 ZZW 1015,3 10 0,0
11.10.2017 14:00:00 18,1 11,6 24 13 48 26 ZW 1015,3 10 0,0
11.10.2017 13:00:00 17,6 12,1 29 16 50 27 ZW 1015,6 10 0,0
11.10.2017 12:00:00 16,3 12,6 16 9 30 16 Z 1015,7 10 0,0
11.10.2017 11:00:00 14,3 12,0 13 7 25 13 ZZW 1016,1 10 0,0
11.10.2017 10:00:00 13,7 11,2 12 7 22 12 Z 1016,2 60 0,0
11.10.2017 09:00:00 13,4 11,5 13 7 22 12 Z 1016,1 60 0,0
11.10.2017 08:00:00 13,1 11,3 9 5 19 10 Z 1016,2 60 0,0
11.10.2017 07:00:00 12,8 11,9 11 6 19 10 Z 1016,5 59 0,0
11.10.2017 06:00:00 12,6 11,8 13 7 24 13 Z 1017,1 10 0,0
11.10.2017 05:00:00 13,2 10,7 9 5 22 12 ZZW 1017,4 10 0,0
11.10.2017 04:00:00 13,5 10,3 9 5 19 10 Z 1017,8 10 0,0
11.10.2017 03:00:00 13,4 10,4 11 6 22 12 Z 1018,3 10 0,0

tt = temperatuur
td = dauwpunt
ff = windsnelheid
fx = windstoten
dd = windrichting
ppp = luchtdruk
vv = zicht
rr = neerslag

Weerstations in de omgeving